K6OUA-11 Weather Reports


time (UTC)temp
F
wind
direction
speed
knots
gust
knots
rain 1hr
in
rain 24hr
in
rain mn
in
humidity
%
barometer
mb
20260906181335 65 291 1.7 3.5 0.00 0.16 0.00 89
20260906180931 65 264 0.9 7.0 0.00 0.15 0.00 90
20260906180729 65 281 5.2 5.2 0.00 0.15 0.00 89
20260906180527 65 278 2.6 5.2 0.00 0.15 0.00 89
20260906180325 66 288 1.7 5.2 0.00 0.15 0.00 90
20260906180124 66 271 3.5 6.1 0.00 0.15 0.00 90
20260906175922 65 261 5.2 6.1 0.00 0.14 0.00 90
20260906175316 66 302 3.5 5.2 0.00 0.14 0.00 89
20260906175114 66 305 3.5 3.5 0.00 0.13 0.00 89
20260906174912 66 291 3.5 3.5 0.00 0.13 0.00 89
20260906174508 66 299 2.6 3.5 0.00 0.13 0.00 87
20260906174306 66 295 1.7 3.5 0.00 0.12 0.00 87
20260906174105 65 296 1.7 2.6 0.00 0.12 0.00 86
20260906173903 65 309 1.7 2.6 0.00 0.12 0.00 86
20260906173701 66 295 1.7 4.3 0.00 0.11 0.00 85
20260906173259 66 298 1.7 4.3 0.00 0.10 0.00 85
20260906172651 65 302 2.6 6.1 0.00 0.08 0.00 84
20260906172249 66 305 1.7 6.1 0.00 0.08 0.00 84
20260906171844 66 275 3.5 5.2 0.00 0.07 0.00 84
20260906171642 66 296 1.7 7.0 0.00 0.06 0.00 84
20260906171440 66 303 3.5 7.0 0.00 0.06 0.00 83
20260906171238 66 265 3.5 6.1 0.00 0.06 0.00 83
20260906171036 66 275 6.1 6.1 0.00 0.05 0.00 83
20260906170836 67 286 4.3 6.1 0.00 0.04 0.00 82
20260906170632 67 272 3.5 7.0 0.00 0.04 0.00 81
20260906170432 67 275 3.5 7.0 0.00 0.03 0.00 81
20260906170230 67 265 5.2 5.2 0.00 0.03 0.00 80
20260906165825 68 268 5.2 5.2 0.00 0.02 0.00 78
20260906165624 69 278 4.3 4.3 0.00 0.01 0.00 76
20260906165421 69 292 2.6 4.3 0.00 0.01 0.00 75
20260906165219 69 296 2.6 4.3 0.00 0.01 0.00 75
20260906165017 69 306 2.6 4.3 0.00 0.00 0.00 74
20260906164817 69 275 3.5 4.3 0.00 0.00 0.00 77
20260906164613 69 296 2.6 5.2 0.00 0.00 0.00 77
20260906164413 69 295 2.6 5.2 0.00 0.00 0.00 79
20260906164209 69 305 2.6 3.5 0.00 0.00 0.00 79
20260906164007 69 274 4.3 3.5 0.00 0.00 0.00 78
20260906163807 69 310 2.6 3.5 0.00 0.00 0.00 79
20260906163605 69 291 2.6 0.0 0.00 0.00 0.00 80
20260906163403 69 291 2.6 0.0 0.00 0.00 0.00 79
20260906163201 69 66 0.0 0.0 0.00 0.00 0.00 77
20260906162959 69 66 0.0 0.0 0.00 0.00 0.00 77
20260906162757 69 66 0.0 0.0 0.00 0.00 0.00 76
20260906162555 69 66 0.0 0.0 0.00 0.00 0.00 75
20260906162353 69 66 0.0 0.0 0.00 0.00 0.00 75
20260906162151 69 66 0.0 0.0 0.00 0.00 0.00 74
20260906161950 69 66 0.0 0.0 0.00 0.00 0.00 74
20260906161748 69 66 0.0 0.0 0.00 0.00 0.00 74
20260906161545 69 66 0.0 0.0 0.00 0.00 0.00 73
20260906161343 69 66 0.0 0.0 0.00 0.00 0.00 73
20260906161142 70 66 0.0 0.0 0.00 0.00 0.00 72
20260906160939 70 66 0.0 0.0 0.00 0.00 0.00 72
20260906160736 70 66 0.0 1.7 0.00 0.00 0.00 72
20260906160535 70 66 0.0 1.7 0.00 0.00 0.00 72
20260906160334 70 66 0.0 1.7 0.00 0.00 0.00 71
20260906160131 70 66 0.0 3.5 0.00 0.00 0.00 71
20260906155929 70 66 0.0 3.5 0.00 0.00 0.00 70
20260906155728 70 111 1.7 4.3 0.00 0.00 0.00 69
20260906155526 70 113 0.9 4.3 0.00 0.00 0.00 67
20260906155324 70 118 2.6 4.3 0.00 0.00 0.00 66
20260906155122 70 122 2.6 5.2 0.00 0.00 0.00 66
20260906154920 70 137 2.6 5.2 0.00 0.00 0.00 66
20260906154716 70 119 4.3 5.2 0.00 0.00 0.00 66
20260906154314 70 135 0.9 5.2 0.00 0.00 0.00 65
20260906154112 70 146 2.6 7.8 0.00 0.00 0.00 65
20260906153910 70 140 1.7 7.8 0.00 0.00 0.00 65
20260906153708 70 123 2.6 7.8 0.00 0.00 0.00 65
20260906153304 70 111 5.2 7.8 0.00 0.00 0.00 65
20260906153102 70 109 3.5 7.8 0.00 0.00 0.00 65
20260906152900 70 118 4.3 7.8 0.00 0.00 0.00 65
20260906152658 70 101 4.3 4.3 0.00 0.00 0.00 64
20260906152456 70 109 1.7 4.3 0.00 0.00 0.00 63
20260906152254 70 115 2.6 4.3 0.00 0.00 0.00 62
20260906152051 70 60 0.9 5.2 0.00 0.00 0.00 62
20260906151851 70 137 0.9 5.2 0.00 0.00 0.00 62
20260906151648 70 132 1.7 5.2 0.00 0.00 0.00 61
20260906151446 70 129 2.6 5.2 0.00 0.00 0.00 60
20260906151245 70 106 0.9 4.3 0.00 0.00 0.00 60
20260906151043 70 160 1.7 4.3 0.00 0.00 0.00 60
20260906150840 70 109 2.6 4.3 0.00 0.00 0.00 60
20260906150639 69 136 1.7 7.0 0.00 0.00 0.00 60
20260906150437 69 102 1.7 7.0 0.00 0.00 0.00 60
20260906150235 69 97 5.2 6.1 0.00 0.00 0.00 60
20260906150033 70 104 2.6 6.1 0.00 0.00 0.00 60
20260906145831 69 130 0.9 6.1 0.00 0.00 0.00 59
20260906145427 69 95 4.3 8.7 0.00 0.00 0.00 59
20260906145225 69 118 3.5 6.1 0.00 0.00 0.00 59
20260906145023 69 95 6.1 6.1 0.00 0.00 0.00 59
20260906144821 69 109 2.6 6.1 0.00 0.00 0.00 58
20260906144617 69 144 2.6 6.1 0.00 0.00 0.00 58
20260906144417 69 144 1.7 6.1 0.00 0.00 0.00 57
20260906144213 69 144 2.6 7.0 0.00 0.00 0.00 57
20260906144012 69 120 0.9 7.0 0.00 0.00 0.00 57
20260906143812 69 95 0.0 7.0 0.00 0.00 0.00 57
20260906143609 69 75 3.5 12.2 0.00 0.00 0.00 57
20260906143408 69 125 3.5 12.2 0.00 0.00 0.00 57
20260906142800 69 81 3.5 14.8 0.00 0.00 0.00 57
20260906142600 69 92 6.1 8.7 0.00 0.00 0.00 57
20260906142358 69 115 8.7 8.7 0.00 0.00 0.00 57
20260906142156 70 137 4.3 10.4 0.00 0.00 0.00 56
20260906141952 70 130 5.2 10.4 0.00 0.00 0.00 54
20260906141752 70 123 3.5 10.4 0.00 0.00 0.00 53
20260906141550 70 126 4.3 12.2 0.00 0.00 0.00 52
20260906141348 70 97 6.1 12.2 0.00 0.00 0.00 52
20260906141146 71 52 3.5 14.8 0.00 0.00 0.00 51
20260906140942 71 82 10.4 14.8 0.00 0.00 0.00 50
20260906140740 71 101 7.0 13.9 0.00 0.00 0.00 49
20260906140538 71 122 7.0 13.9 0.00 0.00 0.00 49
20260906140136 72 106 7.8 10.4 0.00 0.00 0.00 49
20260906140006 72 81 7.8 10.4 0.00 0.00 0.00 48
20260906135932 72 81 7.8 10.4 0.00 0.00 0.00 48
20260906135730 72 60 7.8 14.8 0.00 0.00 0.00 46
20260906135528 72 66 3.5 14.8 0.00 0.00 0.00 45
20260906135326 72 78 3.5 14.8 0.00 0.00 0.00 44
20260906135125 72 99 9.6 10.4 0.00 0.00 0.00 45
20260906134923 71 98 9.6 10.4 0.00 0.00 0.00 45
20260906134721 71 104 6.1 9.6 0.00 0.00 0.00 46
20260906134519 70 119 3.5 9.6 0.00 0.00 0.00 49
20260906134317 70 106 5.2 9.6 0.00 0.00 0.00 51
20260906134200 69 120 7.8 10.4 0.00 0.00 0.00 52
20260906134115 69 120 7.8 10.4 0.00 0.00 0.00 52
20260906133913 69 75 7.8 10.4 0.00 0.00 0.00 53
20260906133711 69 102 7.0 1.7 0.00 0.00 0.00 54
20260906133509 68 101 2.6 1.7 0.00 0.00 0.00 54
20260906133309 69 77 0.0 1.7 0.00 0.00 0.00 53
20260906133107 69 99 0.0 0.9 0.00 0.00 0.00 54
20260906132903 69 147 0.0 0.9 0.00 0.00 0.00 55
20260906132501 69 268 0.0 0.0 0.00 0.00 0.00 53
20260906132259 69 268 0.0 0.0 0.00 0.00 0.00 51
20260906132057 69 268 0.0 0.0 0.00 0.00 0.00 51
20260906131856 69 268 0.0 0.0 0.00 0.00 0.00 51
20260906131654 69 268 0.0 2.6 0.00 0.00 0.00 51
20260906131452 69 268 0.0 2.6 0.00 0.00 0.00 51
20260906131250 70 268 0.0 2.6 0.00 0.00 0.00 51
20260906131046 70 285 1.7 0.9 0.00 0.00 0.00 49
20260906130844 70 30 0.0 0.9 0.00 0.00 0.00 48
20260906130642 69 30 0.0 0.9 0.00 0.00 0.00 49
20260906130440 69 30 0.0 0.9 0.00 0.00 0.00 50
20260906130238 69 15 0.0 0.0 0.00 0.00 0.00 50
20260906130036 69 74 0.0 0.0 0.00 0.00 0.00 50
20260906125834 69 74 0.0 0.0 0.00 0.00 0.00 51
20260906125632 69 74 0.0 0.0 0.00 0.00 0.00 51
20260906125430 69 74 0.0 0.0 0.00 0.00 0.00 50
20260906125230 69 74 0.0 0.0 0.00 0.00 0.00 50
20260906125026 69 74 0.0 0.0 0.00 0.00 0.00 50
20260906124824 69 74 0.0 0.0 0.00 0.00 0.00 50
20260906124622 69 74 0.0 0.0 0.00 0.00 0.00 49
20260906124421 69 74 0.0 0.0 0.00 0.00 0.00 49
20260906124219 69 74 0.0 0.0 0.00 0.00 0.00 50
20260906124017 69 74 0.0 0.0 0.00 0.00 0.00 50
20260906123815 70 74 0.0 0.0 0.00 0.00 0.00 49
20260906123613 70 74 0.0 0.0 0.00 0.00 0.00 49
20260906123411 70 74 0.0 0.0 0.00 0.00 0.00 50
20260906123209 70 74 0.0 0.0 0.00 0.00 0.00 50
20260906122805 69 74 0.0 0.0 0.00 0.00 0.00 50
20260906122603 69 74 0.0 0.0 0.00 0.00 0.00 50
20260906122401 69 74 0.0 0.0 0.00 0.00 0.00 51
20260906122159 69 74 0.0 0.0 0.00 0.00 0.00 51
20260906121957 69 74 0.0 0.0 0.00 0.00 0.00 51
20260906121755 69 74 0.0 0.0 0.00 0.00 0.00 51
20260906121553 69 74 0.0 0.0 0.00 0.00 0.00 51
20260906121351 69 74 0.0 0.0 0.00 0.00 0.00 52
20260906120947 69 74 0.0 1.7 0.00 0.00 0.00 52
20260906120745 69 74 0.0 1.7 0.00 0.00 0.00 52
20260906120543 69 84 0.0 1.7 0.00 0.00 0.00 51
20260906120342 69 75 0.0 1.7 0.00 0.00 0.00 51
20260906120140 69 75 0.0 2.6 0.00 0.00 0.00 51
20260906115938 69 102 0.0 2.6 0.00 0.00 0.00 51
20260906115736 69 102 0.9 2.6 0.00 0.00 0.00 51
20260906115534 69 109 1.7 2.6 0.00 0.00 0.00 51
20260906115332 69 106 0.9 2.6 0.00 0.00 0.00 51
20260906115130 69 109 0.9 0.0 0.00 0.00 0.00 51
20260906114928 69 108 1.7 0.0 0.00 0.00 0.00 51
20260906114726 69 88 0.0 0.0 0.00 0.00 0.00 51
20260906114524 69 88 0.0 0.0 0.00 0.00 0.00 52
20260906114324 68 88 0.0 0.0 0.00 0.00 0.00 53
20260906114120 68 88 0.0 0.9 0.00 0.00 0.00 53
20260906113918 68 88 0.0 0.9 0.00 0.00 0.00 54
20260906113716 68 64 0.0 0.0 0.00 0.00 0.00 55
20260906113515 68 52 0.0 0.0 0.00 0.00 0.00 55
20260906113313 68 52 0.0 0.0 0.00 0.00 0.00 54
20260906113111 68 52 0.0 0.0 0.00 0.00 0.00 53
20260906112909 68 52 0.0 0.0 0.00 0.00 0.00 52
20260906112707 68 52 0.0 0.0 0.00 0.00 0.00 52
20260906112306 68 52 0.0 0.0 0.00 0.00 0.00 53
20260906112101 68 52 0.0 0.0 0.00 0.00 0.00 53
20260906111859 68 52 0.0 0.0 0.00 0.00 0.00 53
20260906111657 68 52 0.0 0.0 0.00 0.00 0.00 53
20260906111455 68 52 0.0 0.0 0.00 0.00 0.00 53
20260906111254 68 52 0.0 0.0 0.00 0.00 0.00 54
20260906111052 68 52 0.0 0.0 0.00 0.00 0.00 54
20260906110850 68 52 0.0 0.0 0.00 0.00 0.00 54
20260906110648 68 52 0.0 0.0 0.00 0.00 0.00 54
20260906110446 68 52 0.0 0.0 0.00 0.00 0.00 54
20260906110244 68 52 0.0 0.0 0.00 0.00 0.00 54
20260906110042 68 52 0.0 0.0 0.00 0.00 0.00 54
20260906105840 68 52 0.0 0.0 0.00 0.00 0.00 55
20260906105638 68 52 0.0 0.0 0.00 0.00 0.00 55
20260906105436 68 52 0.0 0.0 0.00 0.00 0.00 55
20260906105032 68 52 0.0 0.0 0.00 0.00 0.00 54
20260906104831 68 52 0.0 0.0 0.00 0.00 0.00 54
20260906104629 68 52 0.0 0.0 0.00 0.00 0.00 54
20260906104427 68 52 0.0 0.0 0.00 0.00 0.00 54
20260906104225 68 52 0.0 0.0 0.00 0.00 0.00 53
20260906104023 69 52 0.0 0.0 0.00 0.00 0.00 53
20260906103821 68 52 0.0 0.0 0.00 0.00 0.00 53
20260906103619 68 52 0.0 0.0 0.00 0.00 0.00 53
20260906103417 68 52 0.0 0.0 0.00 0.00 0.00 53
20260906103215 68 52 0.0 0.0 0.00 0.00 0.00 53
20260906103013 68 52 0.0 0.0 0.00 0.00 0.00 54
20260906102811 68 52 0.0 0.0 0.00 0.00 0.00 54
20260906102610 68 52 0.0 0.0 0.00 0.00 0.00 54
20260906102408 68 52 0.0 0.0 0.00 0.00 0.00 54
20260906102206 68 52 0.0 1.7 0.00 0.00 0.00 54
20260906102004 68 52 0.0 1.7 0.00 0.00 0.00 55
20260906101802 68 52 0.0 1.7 0.00 0.00 0.00 56
20260906101600 68 52 0.0 4.3 0.00 0.00 0.00 56
20260906101358 68 52 0.0 4.3 0.00 0.00 0.00 56
20260906101156 67 95 0.9 4.3 0.00 0.00 0.00 56
20260906100954 67 106 1.7 4.3 0.00 0.00 0.00 57
20260906100752 67 108 3.5 4.3 0.00 0.00 0.00 57
20260906100550 67 98 2.6 2.6 0.00 0.00 0.00 57
20260906100349 67 78 0.9 2.6 0.00 0.00 0.00 58
20260906100147 67 64 0.9 3.5 0.00 0.00 0.00 58
20260906095945 67 102 1.7 3.5 0.00 0.00 0.00 58
20260906095743 66 104 0.9 0.0 0.00 0.00 0.00 58
20260906095541 66 109 1.7 0.0 0.00 0.00 0.00 57
20260906095341 66 112 2.6 0.0 0.00 0.00 0.00 57
20260906095137 67 46 0.0 0.0 0.00 0.00 0.00 56
20260906094935 67 46 0.0 0.0 0.00 0.00 0.00 56
20260906094733 67 46 0.0 0.0 0.00 0.00 0.00 57
20260906094533 67 46 0.0 0.0 0.00 0.00 0.00 57
20260906094330 67 46 0.0 0.0 0.00 0.00 0.00 57
20260906094128 67 46 0.0 0.0 0.00 0.00 0.00 57
20260906093926 67 46 0.0 0.0 0.00 0.00 0.00 57
20260906093724 67 46 0.0 0.0 0.00 0.00 0.00 57
20260906093522 67 46 0.0 0.0 0.00 0.00 0.00 57
20260906093320 67 46 0.0 0.0 0.00 0.00 0.00 57
20260906093118 67 46 0.0 0.0 0.00 0.00 0.00 57
20260906092916 67 46 0.0 0.0 0.00 0.00 0.00 58
20260906092714 67 46 0.0 0.0 0.00 0.00 0.00 58
20260906092512 67 46 0.0 0.0 0.00 0.00 0.00 57
20260906092109 67 46 0.0 3.5 0.00 0.00 0.00 57
20260906091909 67 46 0.0 3.5 0.00 0.00 0.00 57
20260906091705 67 84 1.7 4.3 0.00 0.00 0.00 58
20260906091503 67 63 0.0 4.3 0.00 0.00 0.00 58
20260906091301 67 71 0.9 4.3 0.00 0.00 0.00 58
20260906091138 67 113 3.5 4.3 0.00 0.00 0.00 59
20260906091059 67 113 3.5 4.3 0.00 0.00 0.00 59
20260906090655 66 59 1.7 3.5 0.00 0.00 0.00 60
20260906090453 66 90 2.6 3.5 0.00 0.00 0.00 60
20260906090251 66 82 0.9 3.5 0.00 0.00 0.00 60
20260906090050 66 85 1.7 3.5 0.00 0.00 0.00 60
20260906085937 66 67 0.9 3.5 0.00 0.00 0.00 59
20260906085848 66 67 0.9 3.5 0.00 0.00 0.00 59
20260906085646 66 81 0.9 2.6 0.00 0.00 0.00 58
20260906085444 66 105 1.7 2.6 0.00 0.00 0.00 57
20260906085242 66 97 1.7 3.5 0.00 0.00 0.00 57
20260906085040 66 112 1.7 3.5 0.00 0.00 0.00 57
20260906084636 67 123 1.7 2.6 0.00 0.00 0.00 58
20260906084434 67 127 0.9 2.6 0.00 0.00 0.00 59
20260906084232 67 127 0.9 3.5 0.00 0.00 0.00 59
20260906084030 67 129 1.7 3.5 0.00 0.00 0.00 59
20260906083829 67 113 0.9 3.5 0.00 0.00 0.00 59
20260906083627 67 113 1.7 0.0 0.00 0.00 0.00 59
20260906083425 67 126 2.6 0.0 0.00 0.00 0.00 60
20260906083223 67 195 0.0 0.0 0.00 0.00 0.00 60
20260906083021 66 195 0.0 0.0 0.00 0.00 0.00 60
20260906082819 67 195 0.0 0.0 0.00 0.00 0.00 60
20260906082617 66 195 0.0 0.0 0.00 0.00 0.00 60
20260906082415 66 195 0.0 0.0 0.00 0.00 0.00 60
20260906082213 66 195 0.0 0.0 0.00 0.00 0.00 60
20260906082011 66 195 0.0 0.0 0.00 0.00 0.00 60
20260906081810 66 195 0.0 0.0 0.00 0.00 0.00 60
20260906081608 66 195 0.0 0.0 0.00 0.00 0.00 60
20260906081406 66 195 0.0 0.0 0.00 0.00 0.00 60
20260906081204 66 195 0.0 0.0 0.00 0.00 0.00 61
20260906080800 66 195 0.0 0.0 0.00 0.00 0.00 61
20260906080558 65 195 0.0 0.0 0.00 0.00 0.00 60
20260906080356 65 195 0.0 0.0 0.00 0.00 0.00 60
20260906080154 65 195 0.0 0.0 0.00 0.00 0.00 59
20260906075952 65 195 0.0 0.0 0.00 0.00 0.00 59
20260906075751 65 195 0.0 0.0 0.00 0.00 0.00 59
20260906075631 65 195 0.0 0.0 0.00 0.00 0.00 59
20260906075549 65 195 0.0 0.0 0.00 0.00 0.00 59
20260906075431 65 195 0.0 0.0 0.00 0.00 0.00 59
20260906075347 65 195 0.0 0.0 0.00 0.00 0.00 59
20260906075145 65 195 0.0 0.0 0.00 0.00 0.00 59
20260906074943 65 195 0.0 0.0 0.00 0.00 0.00 59
20260906074741 65 195 0.0 0.0 0.00 0.00 0.00 59
20260906074539 65 195 0.0 0.0 0.00 0.00 0.00 58
20260906074337 65 195 0.0 0.0 0.00 0.00 0.00 58
20260906074135 65 195 0.0 0.0 0.00 0.00 0.00 57
20260906073933 65 195 0.0 0.0 0.00 0.00 0.00 58
20260906073731 65 195 0.0 0.0 0.00 0.00 0.00 57
20260906073530 65 195 0.0 0.0 0.00 0.00 0.00 58
20260906073328 65 195 0.0 0.0 0.00 0.00 0.00 58
20260906073126 65 195 0.0 0.0 0.00 0.00 0.00 58
20260906072924 65 195 0.0 0.0 0.00 0.00 0.00 58
20260906072722 65 195 0.0 0.0 0.00 0.00 0.00 58
20260906072520 65 195 0.0 0.0 0.00 0.00 0.00 57
20260906072318 65 195 0.0 0.0 0.00 0.00 0.00 58
20260906072116 65 195 0.0 0.0 0.00 0.00 0.00 58
20260906071914 65 195 0.0 0.0 0.00 0.00 0.00 58
20260906071712 66 195 0.0 0.0 0.00 0.00 0.00 59
20260906071510 66 195 0.0 0.0 0.00 0.00 0.00 60
20260906071309 66 195 0.0 0.0 0.00 0.00 0.00 60
20260906071107 66 195 0.0 0.0 0.00 0.00 0.00 59
20260906070905 66 195 0.0 0.0 0.00 0.00 0.00 59
20260906070703 66 195 0.0 0.0 0.00 0.00 0.00 59
20260906070259 66 195 0.0 0.0 0.00 0.00 0.00 59
20260906070057 66 195 0.0 0.0 0.00 0.00 0.00 59
20260906065855 66 195 0.0 0.0 0.00 0.00 0.00 59
20260906065653 66 195 0.0 0.0 0.00 0.00 0.00 59
20260906065451 66 195 0.0 0.0 0.00 0.00 0.00 60
20260906065250 66 195 0.0 0.0 0.00 0.00 0.00 60
20260906065048 66 195 0.0 0.0 0.00 0.00 0.00 61
20260906064846 66 195 0.0 0.0 0.00 0.00 0.00 62
20260906064644 66 195 0.0 0.0 0.00 0.00 0.00 62
20260906064442 66 195 0.0 0.0 0.00 0.00 0.00 61
20260906064240 66 195 0.0 0.0 0.00 0.00 0.00 60
20260906064038 66 195 0.0 0.0 0.00 0.00 0.00 59
20260906063836 66 195 0.0 0.0 0.00 0.00 0.00 58
20260906063634 66 195 0.0 0.0 0.00 0.00 0.00 58
20260906063432 66 195 0.0 0.0 0.00 0.00 0.00 58
20260906063230 66 195 0.0 0.0 0.00 0.00 0.00 58
20260906063029 66 195 0.0 0.0 0.00 0.00 0.00 57
20260906062827 66 195 0.0 0.0 0.00 0.00 0.00 57
20260906062625 66 195 0.0 0.0 0.00 0.00 0.00 57
20260906062423 66 195 0.0 0.0 0.00 0.00 0.00 57
20260906062221 66 195 0.0 0.0 0.00 0.00 0.00 56
20260906062019 66 195 0.0 0.0 0.00 0.00 0.00 56
20260906061817 66 195 0.0 0.0 0.00 0.00 0.00 55
20260906061615 66 195 0.0 0.0 0.00 0.00 0.00 55
20260906061413 66 195 0.0 0.0 0.00 0.00 0.00 54
20260906061211 66 195 0.0 0.0 0.00 0.00 0.00 53
20260906060808 66 195 0.0 0.0 0.00 0.00 0.00 54
20260906060606 66 195 0.0 0.0 0.00 0.00 0.00 55
20260906060404 66 195 0.0 0.0 0.00 0.00 0.00 54
20260906060202 66 195 0.0 0.0 0.00 0.00 0.00 54
20260906060000 66 195 0.0 0.0 0.00 0.00 0.00 54
20260906055758 66 195 0.0 0.0 0.00 0.00 0.00 55
20260906055556 66 195 0.0 0.0 0.00 0.00 0.00 55
20260906055354 66 195 0.0 0.0 0.00 0.00 0.00 55
20260906055154 66 195 0.0 0.0 0.00 0.00 0.00 55
20260906054952 66 195 0.0 0.0 0.00 0.00 0.00 55
20260906054749 67 195 0.0 0.0 0.00 0.00 0.00 55
20260906054619 66 195 0.0 0.0 0.00 0.00 0.00 55
20260906054547 66 195 0.0 0.0 0.00 0.00 0.00 55
20260906054345 67 195 0.0 0.0 0.00 0.00 0.00 55
20260906054143 67 195 0.0 0.0 0.00 0.00 0.00 55
20260906053941 67 195 0.0 0.0 0.00 0.00 0.00 54
20260906053739 67 195 0.0 0.0 0.00 0.00 0.00 55
20260906053537 67 195 0.0 0.0 0.00 0.00 0.00 55
20260906053133 67 195 0.0 0.0 0.00 0.00 0.00 56
20260906052931 68 195 0.0 0.0 0.00 0.00 0.00 56
20260906052730 68 195 0.0 0.0 0.00 0.00 0.00 57
20260906052528 68 195 0.0 0.0 0.00 0.00 0.00 57
20260906052326 68 195 0.0 0.0 0.00 0.00 0.00 57
20260906052124 68 195 0.0 0.0 0.00 0.00 0.00 57
20260906051922 67 195 0.0 0.0 0.00 0.00 0.00 57
20260906051721 67 195 0.0 0.0 0.00 0.00 0.00 57
20260906051518 67 195 0.0 0.0 0.00 0.00 0.00 57
20260906051358 67 195 0.0 0.0 0.00 0.00 0.00 55
20260906051316 67 195 0.0 0.0 0.00 0.00 0.00 55
20260906051114 67 195 0.0 0.0 0.00 0.00 0.00 55
20260906050912 67 195 0.0 0.0 0.00 0.00 0.00 55
20260906050711 67 195 0.0 0.0 0.00 0.00 0.00 56
20260906050307 68 195 0.0 0.0 0.00 0.00 0.00 57
20260906050107 68 195 0.0 0.0 0.00 0.00 0.00 55
20260906045903 68 195 0.0 0.0 0.00 0.00 0.00 56
20260906045701 68 195 0.0 0.0 0.00 0.00 0.00 56
20260906045501 68 195 0.0 0.0 0.00 0.00 0.00 57
20260906045257 68 195 0.0 0.0 0.00 0.00 0.00 57
20260906045057 68 195 0.0 0.0 0.00 0.00 0.00 57
20260906044853 68 195 0.0 0.0 0.00 0.00 0.00 57
20260906044651 68 195 0.0 0.0 0.00 0.00 0.00 57
20260906044449 68 195 0.0 0.0 0.00 0.00 0.00 56
20260906044249 68 195 0.0 0.0 0.00 0.00 0.00 56
20260906044046 69 195 0.0 0.0 0.00 0.00 0.00 56
20260906043844 69 195 0.0 0.0 0.00 0.00 0.00 56
20260906043642 69 195 0.0 0.0 0.00 0.00 0.00 56
20260906043440 69 195 0.0 0.0 0.00 0.00 0.00 57
20260906043238 69 195 0.0 0.0 0.00 0.00 0.00 57
20260906043036 69 195 0.0 0.0 0.00 0.00 0.00 57
20260906042834 69 195 0.0 0.0 0.00 0.00 0.00 56
20260906042632 69 195 0.0 0.0 0.00 0.00 0.00 56
20260906042430 69 195 0.0 0.0 0.00 0.00 0.00 55
20260906042228 69 195 0.0 0.0 0.00 0.00 0.00 55
20260906042026 69 195 0.0 0.0 0.00 0.00 0.00 55
20260906041825 69 195 0.0 0.0 0.00 0.00 0.00 57
20260906041623 69 195 0.0 0.0 0.00 0.00 0.00 57
20260906041421 70 195 0.0 0.0 0.00 0.00 0.00 57
20260906041220 70 195 0.0 0.0 0.00 0.00 0.00 57
20260906041017 70 195 0.0 0.0 0.00 0.00 0.00 56
20260906040815 70 195 0.0 0.0 0.00 0.00 0.00 57
20260906040613 70 195 0.0 0.0 0.00 0.00 0.00 57
20260906040411 70 195 0.0 0.0 0.00 0.00 0.00 57
20260906040007 70 195 0.0 0.0 0.00 0.00 0.00 54
20260906035805 70 195 0.0 0.0 0.00 0.00 0.00 55
20260906035603 70 195 0.0 0.0 0.00 0.00 0.00 55
20260906035401 70 195 0.0 0.0 0.00 0.00 0.00 56
20260906035159 70 195 0.0 0.0 0.00 0.00 0.00 55
20260906034957 70 195 0.0 0.0 0.00 0.00 0.00 55
20260906034755 70 195 0.0 0.0 0.00 0.00 0.00 55
20260906034553 70 195 0.0 0.0 0.00 0.00 0.00 54
20260906034351 70 195 0.0 0.0 0.00 0.00 0.00 54
20260906034149 70 195 0.0 0.0 0.00 0.00 0.00 55
20260906033947 71 195 0.0 0.0 0.00 0.00 0.00 55
20260906033745 71 195 0.0 0.0 0.00 0.00 0.00 54
20260906033543 71 195 0.0 0.0 0.00 0.00 0.00 54
20260906033341 71 195 0.0 0.0 0.00 0.00 0.00 56
20260906033139 71 195 0.0 0.0 0.00 0.00 0.00 56
20260906032937 71 195 0.0 0.0 0.00 0.00 0.00 56
20260906032735 71 195 0.0 0.0 0.00 0.00 0.00 56
20260906032533 71 195 0.0 0.0 0.00 0.00 0.00 56
20260906032129 71 195 0.0 0.0 0.00 0.00 0.00 56
20260906031927 72 195 0.0 0.0 0.00 0.00 0.00 55
20260906031726 72 195 0.0 0.0 0.00 0.00 0.00 53
20260906031524 72 195 0.0 0.0 0.00 0.00 0.00 52
20260906031322 72 195 0.0 0.0 0.00 0.00 0.00 52
20260906031120 72 195 0.0 0.0 0.00 0.00 0.00 53
20260906030918 72 195 0.0 0.0 0.00 0.00 0.00 54
20260906030716 72 195 0.0 0.0 0.00 0.00 0.00 54
20260906030514 73 195 0.0 0.0 0.00 0.00 0.00 54
20260906030312 73 195 0.0 0.0 0.00 0.00 0.00 54
20260906030110 73 195 0.0 0.9 0.00 0.00 0.00 53
20260906025908 73 195 0.0 0.9 0.00 0.00 0.00 53
20260906025504 73 292 0.0 0.0 0.00 0.00 0.00 51
20260906025306 74 292 0.0 0.0 0.00 0.00 0.00 51
20260906025100 73 292 0.0 1.7 0.00 0.00 0.00 50
20260906024858 74 292 0.0 1.7 0.00 0.00 0.00 50
20260906024656 74 292 0.0 2.6 0.00 0.00 0.00 49
20260906024454 74 292 0.0 2.6 0.00 0.00 0.00 50
20260906024252 74 292 1.7 2.6 0.00 0.00 0.00 50
20260906024050 74 298 1.7 2.6 0.00 0.00 0.00 50
20260906023848 74 300 1.7 2.6 0.00 0.00 0.00 50
20260906023646 74 298 1.7 2.6 0.00 0.00 0.00 50
20260906023444 74 296 1.7 2.6 0.00 0.00 0.00 50
20260906023242 74 278 1.7 4.3 0.00 0.00 0.00 49
20260906023040 74 229 0.0 4.3 0.00 0.00 0.00 49
20260906022839 75 229 0.0 4.3 0.00 0.00 0.00 49
20260906022637 75 286 1.7 1.7 0.00 0.00 0.00 49
20260906022435 75 284 0.9 1.7 0.00 0.00 0.00 48
20260906022233 75 284 1.7 2.6 0.00 0.00 0.00 48
20260906021829 76 251 0.0 2.6 0.00 0.00 0.00 47
20260906021627 76 251 0.0 3.5 0.00 0.00 0.00 47
20260906021425 76 274 1.7 3.5 0.00 0.00 0.00 46
20260906021223 77 268 2.6 5.2 0.00 0.00 0.00 47
20260906021021 77 264 0.0 5.2 0.00 0.00 0.00 47
20260906020819 77 299 2.6 5.2 0.00 0.00 0.00 46
20260906020617 77 251 0.9 4.3 0.00 0.00 0.00 46
20260906020415 77 296 0.9 4.3 0.00 0.00 0.00 46
20260906020213 77 275 2.6 6.1 0.00 0.00 0.00 46
20260906020011 77 281 2.6 6.1 0.00 0.00 0.00 46
20260906015809 78 281 1.7 6.1 0.00 0.00 0.00 45
20260906015607 78 274 1.7 5.2 0.00 0.00 0.00 45
20260906015405 78 270 5.2 5.2 0.00 0.00 0.00 45
20260906015203 78 265 2.6 6.1 0.00 0.00 0.00 45
20260906015001 78 265 3.5 6.1 0.00 0.00 0.00 44
20260906014759 78 257 2.6 6.1 0.00 0.00 0.00 45
20260906014557 79 255 5.2 7.0 0.00 0.00 0.00 45
20260906014355 79 246 2.6 7.0 0.00 0.00 0.00 44
20260906014153 79 261 3.5 7.0 0.00 0.00 0.00 43
20260906013951 79 250 5.2 7.0 0.00 0.00 0.00 43
20260906013749 79 255 4.3 7.0 0.00 0.00 0.00 42
20260906013346 79 293 1.7 7.0 0.00 0.00 0.00 41
20260906013144 79 260 3.5 7.8 0.00 0.00 0.00 41
20260906012942 79 284 4.3 7.8 0.00 0.00 0.00 41
20260906012740 79 248 3.5 9.6 0.00 0.00 0.00 40
20260906012538 79 272 4.3 9.6 0.00 0.00 0.00 40
20260906012336 79 264 6.1 9.6 0.00 0.00 0.00 40
20260906012134 79 274 4.3 10.4 0.00 0.00 0.00 40
20260906011932 79 262 8.7 10.4 0.00 0.00 0.00 40
20260906011528 79 285 7.0 12.2 0.00 0.00 0.00 40
20260906011326 79 251 8.7 12.2 0.00 0.00 0.00 39
20260906011124 79 265 7.8 11.3 0.00 0.00 0.00 38
20260906010922 80 289 7.0 11.3 0.00 0.00 0.00 38
20260906010720 80 265 5.2 11.3 0.00 0.00 0.00 38
20260906010318 80 282 7.0 11.3 0.00 0.00 0.00 38
20260906005912 80 271 8.7 10.4 0.00 0.00 0.00 37
20260906005508 80 257 7.0 12.2 0.00 0.00 0.00 38
20260906005307 80 271 5.2 12.2 0.00 0.00 0.00 38
20260906004903 81 270 5.2 13.9 0.00 0.00 0.00 38
20260906004703 81 271 7.8 12.2 0.00 0.00 0.00 38
20260906004459 81 265 8.7 12.2 0.00 0.00 0.00 37
20260906004257 81 250 7.0 12.2 0.00 0.00 0.00 36
20260906004055 81 268 6.1 8.7 0.00 0.00 0.00 37
20260906003853 82 267 10.4 8.7 0.00 0.00 0.00 36
20260906003651 82 272 4.3 11.3 0.00 0.00 0.00 36
20260906003449 82 255 6.1 11.3 0.00 0.00 0.00 36
20260906003247 82 247 0.9 11.3 0.00 0.00 0.00 36
20260906003046 82 267 6.1 10.4 0.00 0.00 0.00 36
20260906002845 82 260 3.5 10.4 0.00 0.00 0.00 36
20260906002642 82 279 5.2 12.2 0.00 0.00 0.00 36
20260906002439 82 285 4.3 12.2 0.00 0.00 0.00 37
20260906002239 81 261 5.2 12.2 0.00 0.00 0.00 37
20260906002035 82 261 9.6 12.2 0.00 0.00 0.00 37
20260906001835 82 261 11.3 12.2 0.00 0.00 0.00 36
20260906001631 83 262 9.6 7.8 0.00 0.00 0.00 35
20260906001429 84 257 7.0 7.8 0.00 0.00 0.00 34
20260906001227 84 270 0.9 10.4 0.00 0.00 0.00 33
20260906001025 84 285 6.1 10.4 0.00 0.00 0.00 33
20260906000825 84 271 5.2 10.4 0.00 0.00 0.00 32
20260906000621 84 302 6.1 11.3 0.00 0.00 0.00 34
20260906000419 84 267 6.1 11.3 0.00 0.00 0.00 33
20260906000219 84 267 5.2 10.4 0.00 0.00 0.00 33
20260906000015 83 257 4.3 10.4 0.00 0.00 0.00 32
20260905235813 84 275 8.7 10.4 0.00 0.00 0.00 33
20260905235612 84 261 3.5 12.2 0.00 0.00 0.00 33
20260905235410 84 251 7.0 12.2 0.00 0.00 0.00 33
20260905234806 84 289 6.1 13.0 0.00 0.00 0.00 32
20260905234602 84 255 5.2 11.3 0.00 0.00 0.00 31
20260905234401 84 272 10.4 11.3 0.00 0.00 0.00 32
20260905234158 84 270 7.0 14.8 0.00 0.00 0.00 32
20260905233958 84 257 6.1 14.8 0.00 0.00 0.00 32
20260905233756 84 248 5.2 14.8 0.00 0.00 0.00 31
20260905233552 84 246 8.7 10.4 0.00 0.00 0.00 31
20260905233350 84 271 6.1 10.4 0.00 0.00 0.00 31
20260905233148 84 288 2.6 13.0 0.00 0.00 0.00 32
20260905232946 84 282 4.3 13.0 0.00 0.00 0.00 33
20260905232748 84 260 7.0 13.0 0.00 0.00 0.00 33
20260905232542 84 261 8.7 13.9 0.00 0.00 0.00 33
20260905232340 84 260 6.1 13.9 0.00 0.00 0.00 33
20260905232138 84 257 7.8 13.9 0.00 0.00 0.00 32
20260905231936 84 251 11.3 13.9 0.00 0.00 0.00 33
20260905231736 84 270 4.3 11.3 0.00 0.00 0.00 34
20260905231533 84 265 11.3 11.3 0.00 0.00 0.00 34
20260905231331 85 254 8.7 11.3 0.00 0.00 0.00 34
20260905231129 84 275 7.8 13.0 0.00 0.00 0.00 33
20260905230928 85 247 7.8 13.0 0.00 0.00 0.00 34
20260905230726 84 279 7.0 13.9 0.00 0.00 0.00 34
20260905230524 85 262 9.6 13.9 0.00 0.00 0.00 34
20260905230321 85 246 9.6 13.9 0.00 0.00 0.00 34
20260905230119 85 260 7.0 13.0 0.00 0.00 0.00 34
20260905225917 85 293 5.2 13.0 0.00 0.00 0.00 33
20260905225717 85 260 9.6 12.2 0.00 0.00 0.00 33
20260905225515 86 274 6.1 12.2 0.00 0.00 0.00 33
20260905225312 86 296 6.1 12.2 0.00 0.00 0.00 33
20260905225110 86 185 2.6 10.4 0.00 0.00 0.00 33
20260905224907 86 250 10.4 10.4 0.00 0.00 0.00 33
20260905224707 86 226 0.0 11.3 0.00 0.00 0.00 35
20260905224303 86 247 7.0 11.3 0.00 0.00 0.00 36
20260905224101 86 255 1.7 13.9 0.00 0.00 0.00 36
20260905223859 86 250 9.6 13.9 0.00 0.00 0.00 37
20260905223657 86 262 7.0 13.0 0.00 0.00 0.00 37
20260905223455 86 272 6.1 13.0 0.00 0.00 0.00 37
20260905223253 86 254 12.2 13.0 0.00 0.00 0.00 37
20260905223051 85 260 7.8 13.9 0.00 0.00 0.00 38
20260905222847 85 271 11.3 13.9 0.00 0.00 0.00 38
20260905222647 85 262 7.8 11.3 0.00 0.00 0.00 38
20260905222445 86 260 12.2 11.3 0.00 0.00 0.00 37
20260905222243 86 253 7.8 12.2 0.00 0.00 0.00 37
20260905222042 85 240 8.7 12.2 0.00 0.00 0.00 37
20260905221838 85 250 6.1 12.2 0.00 0.00 0.00 39
20260905221638 85 282 6.1 13.0 0.00 0.00 0.00 37
20260905221434 85 261 6.1 13.0 0.00 0.00 0.00 38
20260905221234 85 261 8.7 13.9 0.00 0.00 0.00 39
20260905221030 84 247 4.3 13.9 0.00 0.00 0.00 39
20260905220828 85 248 6.1 13.9 0.00 0.00 0.00 39
20260905220627 86 254 6.1 12.2 0.00 0.00 0.00 38
20260905220424 86 272 6.1 12.2 0.00 0.00 0.00 38
20260905220222 86 267 7.0 13.0 0.00 0.00 0.00 38
20260905220022 87 267 8.7 13.0 0.00 0.00 0.00 38
20260905215819 87 237 0.9 13.0 0.00 0.00 0.00 38
20260905215618 86 262 8.7 11.3 0.00 0.00 0.00 39
20260905215212 86 282 8.7 16.5 0.00 0.00 0.00 38
20260905214808 86 257 7.8 16.5 0.00 0.00 0.00 40
20260905214608 85 277 6.1 13.0 0.00 0.00 0.00 40
20260905214404 86 264 16.5 13.0 0.00 0.00 0.00 39
20260905214204 86 260 5.2 12.2 0.00 0.00 0.00 38
20260905214002 86 234 10.4 12.2 0.00 0.00 0.00 38
20260905213800 87 246 9.6 12.2 0.00 0.00 0.00 37
20260905213558 87 271 7.0 13.0 0.00 0.00 0.00 37
20260905213356 87 274 4.3 13.0 0.00 0.00 0.00 36
20260905213154 87 262 11.3 13.9 0.00 0.00 0.00 36
20260905212952 87 268 6.1 13.9 0.00 0.00 0.00 36
20260905212751 87 291 7.8 13.9 0.00 0.00 0.00 36
20260905212548 87 243 7.0 13.0 0.00 0.00 0.00 35
20260905212346 87 268 9.6 13.0 0.00 0.00 0.00 33
20260905212144 87 271 10.4 12.2 0.00 0.00 0.00 34
20260905211942 87 268 8.7 12.2 0.00 0.00 0.00 35
20260905211739 87 255 7.8 12.2 0.00 0.00 0.00 34
20260905211538 87 264 9.6 12.2 0.00 0.00 0.00 33
20260905211337 87 278 6.1 12.2 0.00 0.00 0.00 33
20260905211135 87 270 5.2 13.0 0.00 0.00 0.00 32
20260905210731 88 284 4.3 13.9 0.00 0.00 0.00 32
20260905210527 88 264 6.1 13.9 0.00 0.00 0.00 32
20260905210327 88 260 7.8 13.9 0.00 0.00 0.00 31
20260905205923 87 254 5.2 11.3 0.00 0.00 0.00 29
20260905205721 88 247 9.6 13.0 0.00 0.00 0.00 28
20260905205517 88 260 7.8 13.0 0.00 0.00 0.00 27
20260905205317 88 275 7.8 13.0 0.00 0.00 0.00 28
20260905205115 88 248 6.1 13.0 0.00 0.00 0.00 25
20260905204913 88 262 8.7 13.0 0.00 0.00 0.00 25
20260905204709 87 262 4.3 10.4 0.00 0.00 0.00 25
20260905204509 87 268 10.4 10.4 0.00 0.00 0.00 25
20260905204308 86 307 4.3 10.4 0.00 0.00 0.00 25
20260905204105 88 272 6.1 7.8 0.00 0.00 0.00 24
20260905203903 88 299 3.5 7.8 0.00 0.00 0.00 23
20260905203701 88 165 0.0 12.2 0.00 0.00 0.00 24
20260905203500 88 284 4.3 12.2 0.00 0.00 0.00 25
20260905203257 87 282 5.2 12.2 0.00 0.00 0.00 25
20260905203055 88 275 8.7 10.4 0.00 0.00 0.00 25
20260905202853 87 265 7.8 10.4 0.00 0.00 0.00 25
20260905202651 87 254 8.7 9.6 0.00 0.00 0.00 25
20260905202448 87 326 0.9 9.6 0.00 0.00 0.00 25
20260905202248 87 307 3.5 9.6 0.00 0.00 0.00 25
20260905202046 87 272 8.7 7.8 0.00 0.00 0.00 25
20260905201844 87 334 0.0 7.8 0.00 0.00 0.00 26
20260905201440 87 198 0.0 10.4 0.00 0.00 0.00 26
20260905201238 86 262 7.0 6.1 0.00 0.00 0.00 25
20260905201034 86 292 7.0 6.1 0.00 0.00 0.00 25
20260905200834 87 291 4.3 6.1 0.00 0.00 0.00 25
20260905200630 87 275 6.1 7.0 0.00 0.00 0.00 25
20260905200428 87 206 0.0 7.0 0.00 0.00 0.00 26
20260905200226 87 306 1.7 8.7 0.00 0.00 0.00 25
20260905200024 87 322 0.0 8.7 0.00 0.00 0.00 26
20260905195822 87 277 5.2 8.7 0.00 0.00 0.00 25
20260905195621 87 255 4.3 9.6 0.00 0.00 0.00 25
20260905195419 86 274 4.3 9.6 0.00 0.00 0.00 26
20260905195218 87 277 0.0 12.2 0.00 0.00 0.00 25
20260905195016 86 251 6.1 12.2 0.00 0.00 0.00 25
20260905194814 87 232 3.5 12.2 0.00 0.00 0.00 26
20260905194611 86 272 6.1 6.1 0.00 0.00 0.00 24
20260905194409 87 267 10.4 6.1 0.00 0.00 0.00 24
20260905194208 87 268 4.3 2.6 0.00 0.00 0.00 25
20260905194005 87 156 0.0 2.6 0.00 0.00 0.00 25
20260905193803 87 137 2.6 2.6 0.00 0.00 0.00 24
20260905193602 87 195 0.0 3.5 0.00 0.00 0.00 23
20260905193359 87 230 1.7 3.5 0.00 0.00 0.00 22
20260905193157 87 272 0.0 7.8 0.00 0.00 0.00 23
20260905192957 87 306 2.6 7.8 0.00 0.00 0.00 22
20260905192753 87 139 0.9 7.8 0.00 0.00 0.00 22
20260905192553 87 88 7.0 5.2 0.00 0.00 0.00 22
20260905192351 87 102 3.5 5.2 0.00 0.00 0.00 23
20260905192150 87 84 3.5 6.1 0.00 0.00 0.00 23
20260905191743 87 288 1.7 6.1 0.00 0.00 0.00 23
20260905191543 87 295 0.9 6.1 0.00 0.00 0.00 23
20260905191341 87 187 1.7 6.1 0.00 0.00 0.00 22
20260905191139 88 157 0.9 7.8 0.00 0.00 0.00 22
20260905190935 88 149 4.3 7.8 0.00 0.00 0.00 22
20260905190735 88 150 0.9 7.8 0.00 0.00 0.00 23
20260905190533 88 126 0.0 7.8 0.00 0.00 0.00 23
20260905190331 88 123 4.3 7.8 0.00 0.00 0.00 23
20260905190129 87 112 2.6 7.0 0.00 0.00 0.00 22
20260905185927 88 95 0.0 7.0 0.00 0.00 0.00 23
20260905185725 88 32 0.9 6.1 0.00 0.00 0.00 23
20260905185523 88 136 2.6 6.1 0.00 0.00 0.00 22
20260905185320 88 125 4.3 6.1 0.00 0.00 0.00 22
20260905185118 88 19 0.9 4.3 0.00 0.00 0.00 23
20260905184916 87 94 1.7 4.3 0.00 0.00 0.00 24
20260905184714 87 52 0.9 7.0 0.00 0.00 0.00 24
20260905184310 87 50 2.6 7.0 0.00 0.00 0.00 24
20260905184108 87 98 3.5 4.3 0.00 0.00 0.00 23
20260905183906 87 150 3.5 4.3 0.00 0.00 0.00 23
20260905183704 86 156 2.6 7.0 0.00 0.00 0.00 24
20260905183502 86 146 1.7 7.0 0.00 0.00 0.00 24
20260905183300 86 133 0.0 7.0 0.00 0.00 0.00 24
20260905182856 86 143 1.7 4.3 0.00 0.00 0.00 23
20260905182654 86 118 1.7 7.8 0.00 0.00 0.00 24
20260905182250 85 108 0.9 7.8 0.00 0.00 0.00 25
20260905182050 84 77 0.0 7.8 0.00 0.00 0.00 25
20260905181846 84 170 1.7 7.8 0.00 0.00 0.00 25
20260905181644 84 182 2.6 8.7 0.00 0.00 0.00 25